VOE137 LFRB-LFKF

Flight info

Callsign VOE137
Flight time 1h 59m
Altitude 33000
Route ROSPO DCT KORER DCT LEMKA DCT BEBIX DCT LERGA DCT TOZOT DCT OTROT DCT RETNO DCT KOLON DCT OMARD M623 VAREK
Aircraft A319/M-SDE3FGHIRWY/LB1

Departure

Time 2026-05-07 13:39
Airport Brest Bretagne airport (LFRB)

Arrival

Time 2026-05-07 15:39
Airport Figari Sud-Corse Airport (LFKF)
Time Latitude Longitude Altitude Speed Heading
2026-05-07 13:17 48.44403 -4.42138 324 ft 0 kts 140°
2026-05-07 13:31 48.44405 -4.42140 324 ft 3 kts 140°
2026-05-07 13:32 48.44419 -4.42158 324 ft 2 kts 142°
2026-05-07 13:32 48.44436 -4.42164 324 ft 3 kts 229°
2026-05-07 13:32 48.44438 -4.42160 324 ft 0 kts 232°
2026-05-07 13:34 48.44438 -4.42164 324 ft 1 kts 244°
2026-05-07 13:34 48.44458 -4.42167 324 ft 7 kts 13°
2026-05-07 13:35 48.44502 -4.42118 324 ft 8 kts 42°
2026-05-07 13:35 48.44551 -4.42094 324 ft 8 kts 342°
2026-05-07 13:35 48.44605 -4.42121 322 ft 10 kts 341°
2026-05-07 13:35 48.44683 -4.42157 320 ft 12 kts 350°
2026-05-07 13:36 48.44731 -4.42089 324 ft 12 kts 65°
2026-05-07 13:36 48.44768 -4.41935 327 ft 16 kts 72°
2026-05-07 13:36 48.44800 -4.41792 330 ft 13 kts 71°
2026-05-07 13:36 48.44829 -4.41663 331 ft 13 kts 71°
2026-05-07 13:37 48.44856 -4.41540 333 ft 13 kts 71°
2026-05-07 13:37 48.44891 -4.41388 332 ft 16 kts 71°
2026-05-07 13:37 48.44928 -4.41224 331 ft 17 kts 71°
2026-05-07 13:37 48.44969 -4.41043 327 ft 20 kts 71°
2026-05-07 13:38 48.45017 -4.40833 323 ft 22 kts 71°
2026-05-07 13:38 48.45072 -4.40688 325 ft 10 kts 64°
2026-05-07 13:38 48.45050 -4.40694 324 ft 0 kts 252°
2026-05-07 13:38 48.45046 -4.40714 325 ft 16 kts 252°
2026-05-07 13:39 48.44917 -4.41266 329 ft 90 kts 251°
2026-05-07 13:39 48.44647 -4.42467 309 ft 149 kts 251°
2026-05-07 13:39 48.44296 -4.44020 774 ft 154 kts 250°
2026-05-07 13:39 48.43958 -4.45529 1514 ft 151 kts 252°
2026-05-07 13:40 48.43614 -4.47043 2128 ft 157 kts 252°
2026-05-07 13:40 48.43236 -4.48702 2481 ft 178 kts 251°
2026-05-07 13:40 48.42804 -4.50597 2816 ft 202 kts 251°
2026-05-07 13:40 48.42497 -4.52684 3458 ft 212 kts 274°
2026-05-07 13:41 48.43109 -4.54687 4219 ft 219 kts 316°
2026-05-07 13:41 48.44494 -4.55656 5055 ft 226 kts 357°
2026-05-07 13:41 48.46002 -4.55067 5806 ft 229 kts 39°
2026-05-07 13:41 48.47047 -4.53291 6581 ft 228 kts 57°
2026-05-07 13:42 48.47957 -4.51327 7372 ft 230 kts 58°
2026-05-07 13:42 48.48857 -4.49336 8138 ft 235 kts 58°
2026-05-07 13:42 48.49678 -4.47191 8886 ft 238 kts 75°
2026-05-07 13:42 48.49771 -4.44736 9644 ft 237 kts 106°
2026-05-07 13:43 48.49016 -4.42469 10022 ft 253 kts 136°
2026-05-07 13:43 48.47641 -4.40638 10342 ft 275 kts 142°
2026-05-07 13:43 48.46112 -4.38707 10629 ft 299 kts 142°
2026-05-07 13:43 48.44453 -4.36613 10880 ft 322 kts 142°
2026-05-07 13:44 48.42690 -4.34374 11309 ft 338 kts 142°
2026-05-07 13:44 48.40902 -4.32084 11986 ft 344 kts 141°
2026-05-07 13:44 48.39078 -4.29735 12720 ft 348 kts 141°
2026-05-07 13:44 48.37228 -4.27348 13478 ft 352 kts 142°
2026-05-07 13:45 48.35355 -4.24934 14146 ft 356 kts 142°
2026-05-07 13:45 48.33464 -4.22500 14802 ft 359 kts 142°
2026-05-07 13:45 48.31557 -4.20049 15488 ft 362 kts 142°
2026-05-07 13:45 48.29629 -4.17579 16169 ft 364 kts 142°
2026-05-07 13:46 48.27696 -4.15104 16834 ft 367 kts 142°
2026-05-07 13:46 48.25768 -4.12639 17499 ft 369 kts 142°
2026-05-07 13:46 48.23806 -4.10134 18174 ft 372 kts 142°
2026-05-07 13:46 48.21826 -4.07611 18768 ft 375 kts 142°
2026-05-07 13:47 48.19831 -4.05067 19325 ft 378 kts 142°
2026-05-07 13:47 48.17817 -4.02504 19900 ft 381 kts 142°
2026-05-07 13:47 48.15781 -3.99918 20472 ft 385 kts 142°
2026-05-07 13:47 48.13735 -3.97320 21037 ft 388 kts 142°
2026-05-07 13:48 48.11664 -3.94691 21589 ft 391 kts 142°
2026-05-07 13:48 48.09587 -3.92053 22119 ft 394 kts 142°
2026-05-07 13:48 48.07483 -3.89387 22636 ft 397 kts 142°
2026-05-07 13:48 48.05366 -3.86710 23140 ft 400 kts 142°
2026-05-07 13:49 48.03229 -3.84013 23622 ft 403 kts 142°
2026-05-07 13:49 48.01079 -3.81302 24020 ft 406 kts 142°
2026-05-07 13:49 47.98938 -3.78522 24428 ft 410 kts 138°
2026-05-07 13:49 47.97077 -3.75320 24820 ft 416 kts 128°
2026-05-07 13:50 47.95577 -3.71597 25219 ft 422 kts 118°
2026-05-07 13:50 47.94513 -3.67469 25612 ft 427 kts 110°
2026-05-07 13:50 47.93610 -3.63240 26006 ft 430 kts 110°
2026-05-07 13:50 47.92689 -3.58971 26398 ft 433 kts 110°
2026-05-07 13:51 47.91759 -3.54685 26797 ft 435 kts 110°
2026-05-07 13:51 47.90828 -3.50424 27171 ft 438 kts 111°
2026-05-07 13:51 47.89880 -3.46092 27541 ft 441 kts 111°
2026-05-07 13:51 47.88927 -3.41733 27915 ft 443 kts 110°
2026-05-07 13:52 47.87970 -3.37346 28267 ft 446 kts 110°
2026-05-07 13:52 47.87011 -3.32944 28596 ft 449 kts 110°
2026-05-07 13:52 47.86042 -3.28511 28939 ft 451 kts 110°
2026-05-07 13:52 47.85063 -3.24051 29268 ft 454 kts 110°
2026-05-07 13:53 47.84078 -3.19579 29603 ft 456 kts 110°
2026-05-07 13:53 47.83084 -3.15082 29921 ft 459 kts 110°
2026-05-07 13:53 47.82084 -3.10562 30208 ft 461 kts 111°
2026-05-07 13:53 47.81090 -3.06082 30490 ft 463 kts 111°
2026-05-07 13:54 47.80079 -3.01531 30854 ft 462 kts 111°
2026-05-07 13:54 47.79071 -2.97002 31271 ft 461 kts 111°
2026-05-07 13:54 47.78065 -2.92487 31665 ft 459 kts 111°
2026-05-07 13:54 47.77056 -2.87976 32043 ft 459 kts 111°
2026-05-07 13:55 47.76047 -2.83473 32425 ft 458 kts 111°
2026-05-07 13:55 47.75040 -2.78980 32808 ft 457 kts 111°
2026-05-07 13:55 47.74031 -2.74489 32992 ft 456 kts 111°
2026-05-07 13:56 47.72040 -2.65668 32999 ft 451 kts 111°
2026-05-07 13:56 47.70038 -2.56839 33000 ft 451 kts 111°
2026-05-07 13:57 47.67647 -2.48275 33003 ft 447 kts 123°
2026-05-07 13:57 47.64238 -2.40651 33008 ft 446 kts 127°
2026-05-07 13:58 47.60775 -2.33000 33011 ft 446 kts 127°
2026-05-07 13:58 47.57311 -2.25364 33011 ft 446 kts 127°
2026-05-07 13:59 47.53841 -2.17727 33002 ft 446 kts 127°
2026-05-07 13:59 47.50368 -2.10114 32996 ft 446 kts 127°
2026-05-07 14:00 47.46912 -2.02558 32980 ft 446 kts 127°
2026-05-07 14:00 47.43422 -1.94969 32977 ft 446 kts 127°
2026-05-07 14:01 47.39931 -1.87381 32981 ft 447 kts 127°
2026-05-07 14:01 47.36428 -1.79789 32967 ft 447 kts 127°
2026-05-07 14:02 47.32924 -1.72198 32980 ft 447 kts 127°
2026-05-07 14:02 47.29419 -1.64628 32975 ft 447 kts 127°
2026-05-07 14:03 47.25924 -1.57110 32978 ft 447 kts 127°
2026-05-07 14:03 47.22397 -1.49549 32982 ft 448 kts 127°
2026-05-07 14:04 47.18866 -1.42004 32981 ft 448 kts 127°
2026-05-07 14:04 47.15315 -1.34457 32979 ft 448 kts 128°
2026-05-07 14:05 47.11771 -1.26924 32988 ft 448 kts 128°
2026-05-07 14:05 47.08233 -1.19406 32978 ft 448 kts 128°
2026-05-07 14:06 47.04705 -1.11918 32986 ft 448 kts 128°
2026-05-07 14:06 47.01140 -1.04400 32991 ft 449 kts 128°
2026-05-07 14:07 46.97563 -0.96904 32993 ft 449 kts 128°
2026-05-07 14:07 46.93986 -0.89406 32997 ft 449 kts 128°
2026-05-07 14:08 46.90402 -0.81903 32999 ft 449 kts 128°
2026-05-07 14:08 46.86839 -0.74449 32982 ft 450 kts 128°
2026-05-07 14:09 46.83237 -0.66956 32985 ft 450 kts 128°
2026-05-07 14:09 46.79642 -0.59516 32992 ft 450 kts 128°
2026-05-07 14:10 46.76027 -0.52038 32990 ft 450 kts 128°
2026-05-07 14:10 46.72411 -0.44567 32996 ft 450 kts 128°
2026-05-07 14:11 46.69404 -0.38371 33002 ft 450 kts 128°
2026-05-07 14:11 46.65776 -0.30915 32991 ft 450 kts 128°
2026-05-07 14:12 46.62257 -0.23434 32994 ft 453 kts 123°
2026-05-07 14:12 46.59090 -0.15492 32998 ft 453 kts 123°
2026-05-07 14:13 46.55924 -0.07625 32980 ft 452 kts 124°
2026-05-07 14:13 46.52741 0.00267 32974 ft 452 kts 124°
2026-05-07 14:14 46.49553 0.08157 32977 ft 453 kts 124°
2026-05-07 14:14 46.46351 0.16066 32976 ft 454 kts 124°
2026-05-07 14:15 46.43163 0.23914 32980 ft 454 kts 124°
2026-05-07 14:15 46.39935 0.31815 32982 ft 455 kts 124°
2026-05-07 14:16 46.36713 0.39696 32980 ft 455 kts 124°
2026-05-07 14:16 46.33504 0.47544 32974 ft 455 kts 124°
2026-05-07 14:17 46.30264 0.55419 32979 ft 456 kts 124°
2026-05-07 14:17 46.27004 0.63312 32981 ft 456 kts 124°
2026-05-07 14:18 46.23739 0.71197 32988 ft 456 kts 124°
2026-05-07 14:18 46.20502 0.79006 32989 ft 456 kts 124°
2026-05-07 14:19 46.17235 0.86874 32979 ft 456 kts 124°
2026-05-07 14:19 46.13958 0.94736 32971 ft 457 kts 124°
2026-05-07 14:20 46.10695 1.02538 32983 ft 457 kts 124°
2026-05-07 14:20 46.07393 1.10402 32988 ft 457 kts 125°
2026-05-07 14:21 46.04111 1.18193 32988 ft 457 kts 125°
2026-05-07 14:21 46.00800 1.26052 32981 ft 458 kts 125°
2026-05-07 14:22 45.97507 1.33843 32980 ft 458 kts 125°
2026-05-07 14:22 45.94376 1.41872 32970 ft 462 kts 116°
2026-05-07 14:23 45.91967 1.50453 32984 ft 463 kts 115°
2026-05-07 14:23 45.89562 1.59003 32983 ft 463 kts 115°
2026-05-07 14:24 45.87134 1.67571 32982 ft 464 kts 115°
2026-05-07 14:24 45.84685 1.76156 32985 ft 464 kts 115°
2026-05-07 14:25 45.82250 1.84680 32988 ft 464 kts 115°
2026-05-07 14:25 45.79793 1.93271 32991 ft 464 kts 115°
2026-05-07 14:26 45.77331 2.01842 32987 ft 465 kts 115°
2026-05-07 14:26 45.74863 2.10408 32972 ft 465 kts 115°
2026-05-07 14:27 45.72393 2.18955 32986 ft 465 kts 116°
2026-05-07 14:27 45.69929 2.27435 32990 ft 464 kts 116°
2026-05-07 14:28 45.67441 2.35967 32987 ft 464 kts 116°
2026-05-07 14:28 45.64950 2.44504 32988 ft 464 kts 116°
2026-05-07 14:29 45.62456 2.53022 32993 ft 464 kts 116°
2026-05-07 14:29 45.59950 2.61542 32994 ft 465 kts 116°
2026-05-07 14:30 45.57452 2.69992 32996 ft 465 kts 116°
2026-05-07 14:30 45.54924 2.78498 32992 ft 465 kts 116°
2026-05-07 14:31 45.52394 2.87003 32996 ft 465 kts 116°
2026-05-07 14:31 45.49867 2.95487 33004 ft 465 kts 116°
2026-05-07 14:32 45.47333 3.03971 33012 ft 464 kts 116°
2026-05-07 14:32 45.44805 3.12388 33010 ft 464 kts 116°
2026-05-07 14:33 45.42252 3.20842 32987 ft 465 kts 116°
2026-05-07 14:33 45.39692 3.29310 32979 ft 465 kts 117°
2026-05-07 14:34 45.37134 3.37725 32978 ft 465 kts 117°
2026-05-07 14:34 45.34558 3.46179 32981 ft 465 kts 117°
2026-05-07 14:35 45.31983 3.54636 32967 ft 465 kts 117°
2026-05-07 14:35 45.29424 3.63013 32973 ft 464 kts 117°
2026-05-07 14:36 45.26837 3.71413 32978 ft 464 kts 117°
2026-05-07 14:36 45.24685 3.80088 32980 ft 467 kts 109°
2026-05-07 14:37 45.22890 3.88958 32976 ft 468 kts 109°
2026-05-07 14:37 45.20173 4.02226 32977 ft 469 kts 109°
2026-05-07 14:38 45.18329 4.11111 32982 ft 469 kts 109°
2026-05-07 14:38 45.16482 4.19999 32990 ft 470 kts 109°
2026-05-07 14:39 45.14638 4.28902 32976 ft 470 kts 109°
2026-05-07 14:39 45.12784 4.37794 32978 ft 471 kts 110°
2026-05-07 14:40 45.10128 4.46093 32969 ft 462 kts 127°
2026-05-07 14:40 45.06125 4.53097 32973 ft 457 kts 135°
2026-05-07 14:41 45.01967 4.59894 32964 ft 457 kts 135°
2026-05-07 14:41 44.97803 4.66688 32965 ft 457 kts 135°
2026-05-07 14:42 44.93631 4.73473 32957 ft 457 kts 135°
2026-05-07 14:42 44.89453 4.80250 32949 ft 458 kts 136°
2026-05-07 14:43 44.85269 4.87018 32952 ft 458 kts 136°
2026-05-07 14:43 44.81076 4.93770 32961 ft 457 kts 136°
2026-05-07 14:44 44.76912 5.00465 32953 ft 458 kts 136°
2026-05-07 14:44 44.72720 5.07214 32954 ft 458 kts 136°
2026-05-07 14:45 44.68511 5.13951 32956 ft 458 kts 136°
2026-05-07 14:45 44.64300 5.20672 32961 ft 458 kts 136°
2026-05-07 14:46 44.60097 5.27377 32961 ft 457 kts 136°
2026-05-07 14:46 44.55883 5.34080 32943 ft 458 kts 136°
2026-05-07 14:47 44.51661 5.40783 32942 ft 458 kts 136°
2026-05-07 14:47 44.47448 5.47442 32934 ft 458 kts 137°
2026-05-07 14:48 44.43212 5.54124 32936 ft 458 kts 137°
2026-05-07 14:48 44.38975 5.60802 32942 ft 458 kts 136°
2026-05-07 14:49 44.35230 5.68061 32945 ft 464 kts 129°
2026-05-07 14:49 44.31616 5.75537 32934 ft 464 kts 129°
2026-05-07 14:50 44.28012 5.82956 32932 ft 465 kts 129°
2026-05-07 14:50 44.24367 5.90414 32923 ft 465 kts 130°
2026-05-07 14:51 44.20716 5.97869 32929 ft 465 kts 130°
2026-05-07 14:51 44.17069 6.05301 32934 ft 465 kts 130°
2026-05-07 14:52 44.13410 6.12744 32936 ft 466 kts 129°
2026-05-07 14:52 44.09742 6.20190 32940 ft 467 kts 130°
2026-05-07 14:53 44.06062 6.27642 32943 ft 467 kts 130°
2026-05-07 14:53 44.02382 6.35080 32935 ft 468 kts 130°
2026-05-07 14:54 43.98681 6.42528 32952 ft 468 kts 130°
2026-05-07 14:54 43.95004 6.49918 32937 ft 468 kts 130°
2026-05-07 14:55 43.91923 6.56099 32955 ft 468 kts 130°
2026-05-07 14:55 43.88206 6.63528 32961 ft 469 kts 130°
2026-05-07 14:56 43.84478 6.70953 32963 ft 469 kts 130°
2026-05-07 14:56 43.80742 6.78378 32950 ft 470 kts 131°
2026-05-07 14:57 43.76392 6.87020 32962 ft 470 kts 131°
2026-05-07 14:57 43.73232 6.93138 32968 ft 467 kts 136°
2026-05-07 14:58 43.68365 6.99336 32976 ft 454 kts 150°
2026-05-07 14:58 43.63505 7.04387 32980 ft 454 kts 150°
2026-05-07 14:59 43.58451 7.09672 32944 ft 455 kts 150°
2026-05-07 14:59 43.53390 7.14943 32956 ft 456 kts 150°
2026-05-07 15:00 43.48353 7.20166 32962 ft 456 kts 150°
2026-05-07 15:00 43.43282 7.25413 32972 ft 456 kts 150°
2026-05-07 15:01 43.38205 7.30654 32957 ft 456 kts 151°
2026-05-07 15:01 43.33119 7.35896 32971 ft 457 kts 151°
2026-05-07 15:02 43.28035 7.41126 32975 ft 457 kts 151°
2026-05-07 15:02 43.22970 7.46326 32979 ft 457 kts 151°
2026-05-07 15:03 43.17867 7.51546 32961 ft 457 kts 152°
2026-05-07 15:03 43.12757 7.56755 32968 ft 457 kts 152°
2026-05-07 15:04 43.07269 7.60717 32958 ft 438 kts 169°
2026-05-07 15:04 43.01526 7.63553 32963 ft 439 kts 168°
2026-05-07 15:05 42.95775 7.66412 32957 ft 440 kts 169°
2026-05-07 15:05 42.90026 7.69270 32970 ft 440 kts 169°
2026-05-07 15:06 42.84268 7.72120 32980 ft 440 kts 169°
2026-05-07 15:06 42.78551 7.74942 32985 ft 439 kts 169°
2026-05-07 15:07 42.72801 7.77776 32974 ft 439 kts 169°
2026-05-07 15:07 42.67057 7.80604 32987 ft 438 kts 169°
2026-05-07 15:08 42.61314 7.83427 32993 ft 438 kts 169°
2026-05-07 15:08 42.55584 7.86223 32984 ft 438 kts 169°
2026-05-07 15:09 42.49871 7.89009 32922 ft 440 kts 169°
2026-05-07 15:09 42.46978 7.90420 31843 ft 446 kts 169°
2026-05-07 15:09 42.44009 7.91855 30463 ft 459 kts 169°
2026-05-07 15:10 42.40985 7.93318 29022 ft 460 kts 168°
2026-05-07 15:10 42.37983 7.94785 27715 ft 456 kts 167°
2026-05-07 15:10 42.35028 7.96246 26834 ft 446 kts 166°
2026-05-07 15:10 42.32272 7.98067 26228 ft 438 kts 155°
2026-05-07 15:11 42.29856 8.00446 25608 ft 434 kts 144°
2026-05-07 15:11 42.27748 8.03335 24979 ft 427 kts 137°
2026-05-07 15:11 42.25768 8.06271 24366 ft 418 kts 137°
2026-05-07 15:11 42.23825 8.09150 23779 ft 410 kts 137°
2026-05-07 15:12 42.21920 8.11969 23158 ft 404 kts 137°
2026-05-07 15:12 42.20030 8.14758 22610 ft 400 kts 137°
2026-05-07 15:12 42.18161 8.17513 22113 ft 396 kts 137°
2026-05-07 15:12 42.16333 8.20204 21617 ft 392 kts 136°
2026-05-07 15:13 42.14501 8.22894 21145 ft 388 kts 136°
2026-05-07 15:13 42.12686 8.25554 20678 ft 384 kts 136°
2026-05-07 15:13 42.10887 8.28189 20206 ft 380 kts 136°
2026-05-07 15:13 42.09108 8.30794 19741 ft 376 kts 136°
2026-05-07 15:14 42.07350 8.33370 19272 ft 372 kts 136°
2026-05-07 15:14 42.05601 8.35936 18798 ft 369 kts 136°
2026-05-07 15:14 42.03866 8.38479 18323 ft 368 kts 135°
2026-05-07 15:14 42.02132 8.41016 17785 ft 367 kts 135°
2026-05-07 15:15 42.00433 8.43500 17301 ft 365 kts 135°
2026-05-07 15:15 41.98721 8.46004 16804 ft 363 kts 135°
2026-05-07 15:15 41.97012 8.48497 16309 ft 361 kts 135°
2026-05-07 15:15 41.95313 8.50973 15816 ft 360 kts 135°
2026-05-07 15:16 41.93619 8.53442 15334 ft 358 kts 135°
2026-05-07 15:16 41.91927 8.55908 14827 ft 357 kts 135°
2026-05-07 15:16 41.90262 8.58330 14337 ft 356 kts 135°
2026-05-07 15:16 41.88583 8.60770 13838 ft 355 kts 135°
2026-05-07 15:17 41.86907 8.63203 13289 ft 354 kts 135°
2026-05-07 15:17 41.85244 8.65618 12784 ft 351 kts 135°
2026-05-07 15:17 41.83586 8.68021 12283 ft 348 kts 135°
2026-05-07 15:17 41.81939 8.70405 11774 ft 346 kts 135°
2026-05-07 15:18 41.80308 8.72763 11251 ft 344 kts 135°
2026-05-07 15:18 41.78636 8.75035 10741 ft 340 kts 142°
2026-05-07 15:18 41.76687 8.76745 10469 ft 328 kts 156°
2026-05-07 15:18 41.74627 8.77771 10348 ft 312 kts 168°
2026-05-07 15:19 41.72536 8.78234 10225 ft 299 kts 175°
2026-05-07 15:19 41.70502 8.78589 10069 ft 289 kts 175°
2026-05-07 15:19 41.68544 8.78930 9918 ft 284 kts 175°
2026-05-07 15:19 41.66573 8.79271 9713 ft 286 kts 175°
2026-05-07 15:20 41.64583 8.79610 9251 ft 287 kts 174°
2026-05-07 15:20 41.62618 8.79943 8881 ft 284 kts 174°
2026-05-07 15:20 41.60655 8.80278 8448 ft 284 kts 174°
2026-05-07 15:20 41.58699 8.80613 8031 ft 283 kts 174°
2026-05-07 15:21 41.56746 8.80951 7629 ft 281 kts 174°
2026-05-07 15:21 41.54806 8.81285 7206 ft 281 kts 174°
2026-05-07 15:21 41.52875 8.81616 6703 ft 278 kts 173°
2026-05-07 15:21 41.50955 8.81961 6022 ft 278 kts 169°
2026-05-07 15:22 41.49160 8.82821 5396 ft 275 kts 150°
2026-05-07 15:22 41.47590 8.84134 5177 ft 258 kts 147°
2026-05-07 15:22 41.46097 8.85362 5035 ft 246 kts 148°
2026-05-07 15:22 41.44670 8.86516 4934 ft 234 kts 148°
2026-05-07 15:23 41.43311 8.87612 4836 ft 224 kts 148°
2026-05-07 15:23 41.41977 8.88697 4520 ft 229 kts 147°
2026-05-07 15:23 41.40579 8.89839 3911 ft 241 kts 147°
2026-05-07 15:23 41.39300 8.91174 3753 ft 227 kts 123°
2026-05-07 15:24 41.38895 8.93088 3569 ft 215 kts 82°
2026-05-07 15:24 41.39423 8.94921 3239 ft 213 kts 62°
2026-05-07 15:24 41.40112 8.96661 2924 ft 212 kts 61°
2026-05-07 15:24 41.40799 8.98373 2625 ft 211 kts 62°
2026-05-07 15:25 41.41490 9.00099 2323 ft 209 kts 62°
2026-05-07 15:25 41.42209 9.01781 2052 ft 206 kts 52°
2026-05-07 15:25 41.43341 9.02911 1997 ft 207 kts 30°
2026-05-07 15:25 41.44572 9.03903 1997 ft 209 kts 33°
2026-05-07 15:26 41.45796 9.04948 1997 ft 208 kts 33°
2026-05-07 15:26 41.47014 9.05999 1998 ft 208 kts 33°
2026-05-07 15:26 41.48236 9.07051 1997 ft 209 kts 34°
2026-05-07 15:26 41.49301 9.08326 1995 ft 206 kts 63°
2026-05-07 15:27 41.49556 9.10190 2007 ft 207 kts 92°
2026-05-07 15:27 41.49384 9.12081 2001 ft 206 kts 98°
2026-05-07 15:27 41.49126 9.13955 2012 ft 208 kts 98°
2026-05-07 15:27 41.48870 9.15851 2269 ft 209 kts 97°
2026-05-07 15:28 41.48633 9.17766 3246 ft 210 kts 96°
2026-05-07 15:28 41.48410 9.19730 3794 ft 217 kts 96°
2026-05-07 15:28 41.48201 9.21728 3949 ft 218 kts 96°
2026-05-07 15:28 41.47999 9.23733 3996 ft 217 kts 96°
2026-05-07 15:29 41.47806 9.25726 4001 ft 217 kts 96°
2026-05-07 15:29 41.47616 9.27724 3994 ft 216 kts 96°
2026-05-07 15:29 41.47431 9.29719 3996 ft 217 kts 95°
2026-05-07 15:29 41.47252 9.31690 4002 ft 217 kts 95°
2026-05-07 15:30 41.47073 9.33690 4000 ft 217 kts 95°
2026-05-07 15:30 41.46895 9.35684 3998 ft 216 kts 96°
2026-05-07 15:30 41.46407 9.37573 3994 ft 218 kts 123°
2026-05-07 15:30 41.45283 9.38923 3994 ft 221 kts 153°
2026-05-07 15:31 41.43779 9.39322 4010 ft 223 kts 185°
2026-05-07 15:31 41.42332 9.38631 4001 ft 223 kts 217°
2026-05-07 15:31 41.41352 9.37067 3995 ft 222 kts 248°
2026-05-07 15:31 41.41050 9.35063 4008 ft 222 kts 268°
2026-05-07 15:32 41.40931 9.33034 4005 ft 223 kts 267°
2026-05-07 15:32 41.40805 9.30979 4002 ft 222 kts 266°
2026-05-07 15:32 41.40676 9.28922 4001 ft 222 kts 266°
2026-05-07 15:32 41.40545 9.26872 4001 ft 222 kts 266°
2026-05-07 15:33 41.40411 9.24817 4002 ft 222 kts 266°
2026-05-07 15:33 41.40280 9.22796 4000 ft 222 kts 265°
2026-05-07 15:33 41.40146 9.20715 3992 ft 223 kts 266°
2026-05-07 15:33 41.40015 9.18675 3985 ft 224 kts 265°
2026-05-07 15:34 41.39880 9.16581 3905 ft 223 kts 265°
2026-05-07 15:34 41.39745 9.14544 3611 ft 223 kts 266°
2026-05-07 15:34 41.39608 9.12466 3246 ft 226 kts 266°
2026-05-07 15:34 41.39471 9.10376 2920 ft 227 kts 266°
2026-05-07 15:35 41.39335 9.08284 2666 ft 225 kts 265°
2026-05-07 15:35 41.39198 9.06208 2385 ft 224 kts 265°
2026-05-07 15:35 41.39063 9.04173 2076 ft 223 kts 265°
2026-05-07 15:35 41.39115 9.02151 1973 ft 217 kts 293°
2026-05-07 15:36 41.40056 9.00677 1988 ft 205 kts 339°
2026-05-07 15:36 41.41372 9.00555 1985 ft 189 kts 26°
2026-05-07 15:36 41.42415 9.01556 1996 ft 186 kts 42°
2026-05-07 15:36 41.43418 9.02632 1872 ft 180 kts 40°
2026-05-07 15:37 41.44374 9.03656 1727 ft 170 kts 39°
2026-05-07 15:37 41.45287 9.04513 1665 ft 149 kts 36°
2026-05-07 15:37 41.46116 9.05236 1463 ft 140 kts 36°
2026-05-07 15:37 41.46920 9.05948 1080 ft 143 kts 35°
2026-05-07 15:38 41.47771 9.06673 709 ft 144 kts 34°
2026-05-07 15:38 41.48606 9.07412 381 ft 141 kts 40°
2026-05-07 15:38 41.49268 9.08274 163 ft 128 kts 49°
2026-05-07 15:38 41.49840 9.09141 71 ft 112 kts 46°
2026-05-07 15:39 41.50274 9.09766 68 ft 68 kts 48°
2026-05-07 15:39 41.50467 9.10054 80 ft 23 kts 60°
2026-05-07 15:39 41.50513 9.10155 81 ft 3 kts 322°
2026-05-07 15:39 41.50508 9.10113 80 ft 8 kts 247°
2026-05-07 15:40 41.50467 9.10046 83 ft 11 kts 228°
2026-05-07 15:40 41.50410 9.09958 75 ft 15 kts 230°
2026-05-07 15:40 41.50339 9.09840 68 ft 17 kts 232°
2026-05-07 15:40 41.50263 9.09721 69 ft 17 kts 212°
2026-05-07 15:41 41.50170 9.09720 63 ft 14 kts 134°
2026-05-07 15:41 41.50099 9.09807 68 ft 14 kts 151°
2026-05-07 15:41 41.50022 9.09794 71 ft 7 kts 146°
2026-05-07 15:41 41.49994 9.09828 71 ft 0 kts 138°